• In Czech Republic
  • List of Countries
  • For 7 days
  • Water Temperature
  • Satellite Maps
  • Weather Map
  • Weather Widgets
  • user-avatar
    Login

    Hourly Weather Fredericton

    Today, 21 October, Saturday

    Time Temperature Precipitation Wind Pressure Humidity
    00:00 +5°C° 0 mm 3 mps 761 mmHg 73%
    01:00 +5°C° 0 mm 3 mps 761 mmHg 74%
    02:00 +4°C° 0 mm 3 mps 761 mmHg 74%
    03:00 +4°C° 0 mm 3 mps 762 mmHg 74%
    04:00 +4°C° 0 mm 3 mps 762 mmHg 74%
    05:00 +3°C° 0 mm 3 mps 763 mmHg 74%
    06:00 +4°C° 0 mm 3 mps 763 mmHg 73%
    07:00 +4°C° 0 mm 3 mps 764 mmHg 71%
    08:00 +4°C° 0 mm 3 mps 765 mmHg 69%
    09:00 +7°C° 0 mm 3 mps 765 mmHg 62%
    10:00 +7°C° 0 mm 4 mps 765 mmHg 55%
    11:00 +10°C° 0 mm 4 mps 766 mmHg 48%
    12:00 +10°C° 0 mm 4 mps 766 mmHg 45%
    13:00 +11°C° 0 mm 3 mps 766 mmHg 43%
    14:00 +12°C° 0 mm 3 mps 766 mmHg 41%
    15:00 +11°C° 0 mm 3 mps 766 mmHg 46%
    16:00 +10°C° 0 mm 2 mps 767 mmHg 51%
    17:00 +9°C° 0 mm 2 mps 767 mmHg 56%
    18:00 +9°C° 0 mm 1 mps 768 mmHg 59%
    19:00 +8°C° 0 mm 1 mps 769 mmHg 63%
    20:00 +6°C° 0 mm 1 mps 769 mmHg 66%
    21:00 +6°C° 0 mm 1 mps 770 mmHg 67%
    22:00 +5°C° 0 mm 1 mps 770 mmHg 68%
    23:00 +5°C° 0 mm 1 mps 770 mmHg 68%

    Tomorrow, 22 October, Sunday

    Time Temperature Precipitation Wind Pressure Humidity
    00:00 +5°C° 0 mm 1 mps 771 mmHg 67%
    01:00 +5°C° 0 mm 1 mps 771 mmHg 66%
    02:00 +4°C° 0 mm 0 mps 771 mmHg 66%
    03:00 +3°C° 0 mm 0 mps 771 mmHg 66%
    04:00 +3°C° 0 mm 0 mps 771 mmHg 65%
    05:00 +4°C° 0 mm 1 mps 771 mmHg 65%
    06:00 +4°C° 0 mm 1 mps 772 mmHg 63%
    07:00 +4°C° 0 mm 1 mps 772 mmHg 61%
    08:00 +5°C° 0 mm 1 mps 773 mmHg 59%
    09:00 +7°C° 0 mm 1 mps 773 mmHg 52%
    10:00 +9°C° 0 mm 1 mps 772 mmHg 46%
    11:00 +12°C° 0 mm 1 mps 772 mmHg 40%
    12:00 +13°C° 0 mm 1 mps 772 mmHg 42%
    13:00 +14°C° 0 mm 2 mps 771 mmHg 44%
    14:00 +15°C° 0 mm 2 mps 771 mmHg 47%
    15:00 +14°C° 0 mm 2 mps 771 mmHg 55%
    16:00 +13°C° 0 mm 1 mps 770 mmHg 62%
    17:00 +12°C° 0 mm 1 mps 770 mmHg 70%
    18:00 +11°C° 0 mm 1 mps 770 mmHg 76%
    19:00 +10°C° 0 mm 1 mps 770 mmHg 82%
    20:00 +9°C° 0 mm 1 mps 770 mmHg 88%
    21:00 +8°C° 0 mm 1 mps 770 mmHg 90%
    22:00 +8°C° 0 mm 1 mps 770 mmHg 92%
    23:00 +8°C° 0 mm 1 mps 770 mmHg 94%

    Day after tomorrow, 23 October, Monday

    Time Temperature Precipitation Wind Pressure Humidity
    00:00 +9°C° 0 mm 1 mps 769 mmHg 95%
    01:00 +10°C° 0 mm 1 mps 769 mmHg 95%
    02:00 +11°C° 0 mm 1 mps 768 mmHg 96%
    03:00 +11°C° 0 mm 1 mps 768 mmHg 96%
    04:00 +11°C° 0 mm 1 mps 768 mmHg 97%
    05:00 +11°C° 0 mm 1 mps 767 mmHg 98%
    06:00 +11°C° 0 mm 1 mps 767 mmHg 98%
    07:00 +11°C° 0 mm 1 mps 767 mmHg 97%
    08:00 +10°C° 0 mm 2 mps 767 mmHg 97%
    09:00 +13°C° 0 mm 2 mps 766 mmHg 87%
    10:00 +14°C° 0 mm 3 mps 766 mmHg 77%
    11:00 +18°C° 0 mm 3 mps 765 mmHg 68%
    12:00 +19°C° 0 mm 4 mps 765 mmHg 65%
    13:00 +20°C° 0 mm 4 mps 764 mmHg 63%
    14:00 +22°C° 0 mm 4 mps 763 mmHg 60%
    15:00 +21°C° 0 mm 4 mps 763 mmHg 66%
    16:00 +20°C° 0 mm 4 mps 763 mmHg 72%
    17:00 +19°C° 0 mm 3 mps 762 mmHg 78%
    18:00 +18°C° 0 mm 3 mps 762 mmHg 83%
    19:00 +17°C° 0 mm 4 mps 762 mmHg 88%
    20:00 +15°C° 0 mm 4 mps 762 mmHg 93%
    21:00 +15°C° 0 mm 4 mps 762 mmHg 94%
    22:00 +16°C° 0 mm 3 mps 762 mmHg 94%
    23:00 +14°C° 0 mm 3 mps 762 mmHg 95%

    24 October, Tuesday

    Time Temperature Precipitation Wind Pressure Humidity
    00:00 +14°C° 0 mm 3 mps 762 mmHg 95%
    01:00 +14°C° 0 mm 3 mps 762 mmHg 96%
    02:00 +14°C° 0 mm 3 mps 761 mmHg 96%
    03:00 +14°C° 0 mm 3 mps 761 mmHg 96%
    04:00 +14°C° 0 mm 3 mps 761 mmHg 96%
    05:00 +14°C° 0 mm 3 mps 761 mmHg 96%
    06:00 +16°C° 0 mm 3 mps 761 mmHg 96%
    07:00 +16°C° 0 mm 3 mps 761 mmHg 96%
    08:00 +16°C° 0 mm 3 mps 761 mmHg 96%
    09:00 +17°C° 0 mm 3 mps 761 mmHg 92%
    10:00 +18°C° 0 mm 3 mps 761 mmHg 89%
    11:00 +19°C° 0 mm 4 mps 760 mmHg 86%
    12:00 +19°C° 0.1 mm 4 mps 760 mmHg 86%
    13:00 +19°C° 0.1 mm 4 mps 760 mmHg 87%
    14:00 +19°C° 0.1 mm 4 mps 759 mmHg 88%
    15:00 +19°C° 0 mm 4 mps 759 mmHg 87%
    16:00 +19°C° 0 mm 4 mps 759 mmHg 86%
    17:00 +19°C° 0 mm 4 mps 759 mmHg 85%
    18:00 +19°C° 0 mm 4 mps 759 mmHg 86%
    19:00 +18°C° 0 mm 4 mps 759 mmHg 88%
    20:00 +17°C° 0 mm 5 mps 759 mmHg 89%
    21:00 +17°C° 0 mm 5 mps 759 mmHg 88%
    22:00 +17°C° 0 mm 5 mps 758 mmHg 86%
    23:00 +19°C° 0 mm 5 mps 758 mmHg 85%

    25 October, Wednesday

    Time Temperature Precipitation Wind Pressure Humidity
    00:00 +19°C° 0 mm 5 mps 758 mmHg 85%
    01:00 +19°C° 0 mm 6 mps 757 mmHg 84%
    02:00 +19°C° 0 mm 6 mps 756 mmHg 83%
    03:00 +20°C° 0 mm 6 mps 756 mmHg 82%
    04:00 +20°C° 0 mm 6 mps 756 mmHg 81%
    05:00 +20°C° 0 mm 7 mps 755 mmHg 80%
    06:00 +20°C° 0.7 mm 7 mps 755 mmHg 82%
    07:00 +20°C° 0.7 mm 7 mps 755 mmHg 85%
    08:00 +20°C° 0.7 mm 7 mps 754 mmHg 87%
    09:00 +20°C° 1.3 mm 7 mps 754 mmHg 88%
    10:00 +20°C° 1.3 mm 7 mps 754 mmHg 89%
    11:00 +20°C° 1.3 mm 7 mps 754 mmHg 90%
    12:00 +20°C° 2.1 mm 6 mps 754 mmHg 90%
    13:00 +20°C° 2.1 mm 6 mps 754 mmHg 90%
    14:00 +20°C° 2.1 mm 6 mps 754 mmHg 91%
    15:00 +20°C° 0.3 mm 6 mps 754 mmHg 91%
    16:00 +20°C° 0.3 mm 5 mps 754 mmHg 91%
    17:00 +20°C° 0.3 mm 5 mps 754 mmHg 92%
    18:00 +20°C° 0.6 mm 5 mps 754 mmHg 92%
    19:00 +20°C° 0.6 mm 5 mps 755 mmHg 93%
    20:00 +20°C° 0.6 mm 5 mps 755 mmHg 93%
    21:00 +20°C° 0.8 mm 5 mps 755 mmHg 93%
    22:00 +20°C° 0.8 mm 5 mps 754 mmHg 94%
    23:00 +20°C° 0.8 mm 5 mps 754 mmHg 94%

    26 October, Thursday

    Time Temperature Precipitation Wind Pressure Humidity
    00:00 +20°C° 1.8 mm 4 mps 754 mmHg 94%
    01:00 +20°C° 1.8 mm 4 mps 754 mmHg 95%
    02:00 +20°C° 1.8 mm 3 mps 753 mmHg 96%
    03:00 +20°C° 2.3 mm 4 mps 753 mmHg 95%
    04:00 +20°C° 2.3 mm 4 mps 753 mmHg 94%
    05:00 +20°C° 2.3 mm 5 mps 753 mmHg 93%
    06:00 +20°C° 2.3 mm 5 mps 753 mmHg 94%
    07:00 +20°C° 2.3 mm 4 mps 753 mmHg 94%
    08:00 +20°C° 2.3 mm 4 mps 753 mmHg 95%
    09:00 +20°C° 3.8 mm 4 mps 753 mmHg 95%
    10:00 +20°C° 3.8 mm 4 mps 754 mmHg 95%
    11:00 +20°C° 3.8 mm 3 mps 754 mmHg 95%
    12:00 +19°C° 2.8 mm 3 mps 754 mmHg 95%
    13:00 +19°C° 2.8 mm 2 mps 753 mmHg 96%
    14:00 +19°C° 2.8 mm 1 mps 753 mmHg 97%
    15:00 +19°C° 3.9 mm 1 mps 753 mmHg 97%
    16:00 +19°C° 3.9 mm 1 mps 753 mmHg 97%
    17:00 +18°C° 3.9 mm 2 mps 753 mmHg 97%
    18:00 +18°C° 2.1 mm 2 mps 753 mmHg 97%
    19:00 +19°C° 2.1 mm 2 mps 753 mmHg 97%
    20:00 +19°C° 2.1 mm 3 mps 753 mmHg 96%
    21:00 +19°C° 0.6 mm 3 mps 752 mmHg 96%
    22:00 +18°C° 0.6 mm 2 mps 752 mmHg 96%
    23:00 +18°C° 0.6 mm 2 mps 752 mmHg 96%
    Show more